User: anonymous   Login
Location: Carnetin
(48.9010°N, 2.7059°E)
Time: 23:30:30
(UTC+00:00)
Language:

Cosmos 1844 - Orbit

View from above orbital plane
View from above orbital plane
View from above satellite
View from above satellite

Ground track
Ground track

The orbit data is extracted from the following two-line orbital elements,

1 17973U 87041A   22028.23206943 -.00000284  00000-0 -12315-3 0  9991
2 17973  70.9005 319.9393 0028595 118.4932 241.9074 14.14139155791293
Epoch (UTC): 28 January 2022 05:34:10
Eccentricity: 0.0028595
inclination: 70.9005°
perigee height: 824 km
apogee height: 866 km
right ascension of ascending node: 319.9393°
argument of perigee: 118.4932°
revolutions per day: 14.14139155
mean anomaly at epoch: 241.9074°
orbit number at epoch: 79129

The dashed part of the orbit path shows where the satellite is in the earth's shadow,  

DLR